H-2A DEB, 43068

Orbit data source: Space-Track

H-2A DEB, 43068 is space debris in SSO originally from a launch on Sat, 23 Dec 2017 UTC launched from the Tanegashima Space Center (TNSTA). Debris objects in space refer to the collection of defunct objects orbiting the Earth. Examples of debris include non-operational satellites, rocket bodies, and fragments generated from explosions, collisions, or faulty payload assembly.

Loading next visibility...
H-2A DEB details
Identifier
43068, 2017-082D
Orbit
SSO
Last TLE update8 hours ago
Origin
Flag of JPJAXA (JP / JPN)
ManufacturerMELCO
MissionSpacecraft
Bus & MotorUnknown
Mass~50 kg wet, ~50 kg dry
Launch date (UTC)
2017-12-23 (7 years ago)
Launch vehicleUnknown
Launch site
Tanegashima Space Center (TNSTA)
Object type
Payload
Rocket body
Debris
Shape & HBRTrunc Cone, 0.9 m
Radar Cross Section0.533 m², Large (>1 m²)

Expand to show TLE details & history

TLE from 8 hours ago
0 H-2A DEB
1 43068U 17082D   24361.28949057  .00036581  00000-0  13266-2 0  9992
2 43068  97.9801 123.7440 0122235  17.8987 342.6495 15.21392961380512
Epoch: 2024-12-26T06:56Z
Definitive object data (Epoch: 2024-12-26T06:56:51.985Z)
Latitude0.00002°
Longitude-75.74363°
Altitude424.52 km
Speed7.701 km/s
True Right ascension08h 14m 58s
True Declination0° 00' 00"
Sunlit
Object was in full shadow at TLE epoch
Visualization TLE readout
Latitude-81.61269°
Longitude-4.39796°
Altitude549.324 km
Speed7.575 km/s
Apparent Right ascension02h 02m 09s
Apparent Declination-70° 15' 02"
Sunlit
Object is in daylight
Visualization observer readout
Local Sidereal Time13:49:30
Azimuth182.11° SSW
Elevation-59.621°
Doppler factor1
Orbital elements
Apogee altitude582.685 km
Perigee altitude414.569 km
Semi-major axis6,876.764 km
Eccentricity0.0122235
Inclination97.9801°
RAAN123.744°
Arg. of periapsis17.8987°
True anomaly342.22561°
Mean anomaly342.6495°
Eccentric anomaly342.43818°
Mean motion3.80598 °/min
BSTAR0.0013266
Orbital period94.59 mins
Loading maneuver chart data...
Loading historical data...
Loading historical data...
Loading historical data...
Loading historical data...
Loading historical data...
Loading historical data...
Loading historical data...
Other satellites on launch #82 in the year 2017 (2017-12-23 UTC)

H-2A DEB Visibility forecast

Observer location: undefined°, undefined

Span
Click to sort rows by Start time (UTC) header in descending order
Start Az.
Max El. time (UTC)
Max El. Az.
Max El.
End time (UTC)
End Az.
6 mins2024-12-26 21:42:40.219Z352.067° N2024-12-26 21:45:40.219Z265.36° W33.871°2024-12-26 21:48:40.219Z215.993° SW
5 mins2024-12-27 08:20:40.219Z158.193° S2024-12-27 08:22:40.219Z53.313° ENE43.778°2024-12-27 08:25:40.219Z351.095° N
|